Tracking 18815 objects as of 19-October-2017
HD Live streaming from Space Station
objects crossing your sky now

COSMOS 2315

Track COSMOS 2315 now!
10-day predictions
COSMOS 2315 is classified as:


NORAD ID: 23603
Int'l Code: 1995-032A
Perigee: 973.7 km
Apogee: 1,019.4 km
Inclination: 82.9 °
Period: 104.9 minutes
Semi major axis: 7367 km
RCS: 2.3448 m2 (large)
Launch date: July 5, 1995
Source: Commonwealth of Independent States (former USSR) (CIS)
Launch site: PLESETSK MISSILE AND SPACE COMPLEX (PKMTR)
aabbcc
Your satellite tracking list
Your tracking list is empty





NASA's NSSDC Master Catalog

Two Line Element Set (TLE):
1 23603U 95032A   17291.96788689 +.00000022 +00000-0 +70828-5 0  9998
2 23603 082.9026 079.3274 0030994 005.0816 113.6735 13.72837743116650
Source of the keplerian elements: AFSPC